SWA3283 KMCO-KMSY

Flight info

Callsign SWA3283
Flight time 1h 23m
Altitude 32000
Route OSPRY1 REMIS Y280 REDFN HRV
Aircraft B738/M-SDE2E3FGHIRWXY/LB1

Departure

Time 2026-04-22 00:02
Airport Orlando International Airport (KMCO)

Arrival

Time 2026-04-22 01:25
Airport Louis Armstrong New Orleans International Airport (KMSY)
Time Latitude Longitude Altitude Speed Heading
2026-04-21 23:27 28.43495 -81.30335 94 ft 0 kts 35°
2026-04-21 23:44 28.43484 -81.30344 94 ft 2 kts 35°
2026-04-21 23:44 28.43470 -81.30355 95 ft 2 kts 35°
2026-04-21 23:44 28.43457 -81.30366 94 ft 2 kts 31°
2026-04-21 23:44 28.43441 -81.30369 93 ft 2 kts 343°
2026-04-21 23:45 28.43427 -81.30360 93 ft 2 kts 303°
2026-04-21 23:45 28.43414 -81.30334 93 ft 0 kts 300°
2026-04-21 23:49 28.43419 -81.30345 92 ft 8 kts 300°
2026-04-21 23:49 28.43455 -81.30410 94 ft 10 kts 305°
2026-04-21 23:49 28.43511 -81.30456 94 ft 10 kts 342°
2026-04-21 23:49 28.43578 -81.30443 94 ft 10 kts 31°
2026-04-21 23:50 28.43631 -81.30389 94 ft 11 kts 49°
2026-04-21 23:50 28.43685 -81.30315 94 ft 13 kts 52°
2026-04-21 23:50 28.43740 -81.30234 94 ft 13 kts 52°
2026-04-21 23:50 28.43794 -81.30155 93 ft 12 kts 51°
2026-04-21 23:51 28.43828 -81.30070 94 ft 12 kts 92°
2026-04-21 23:51 28.43810 -81.29977 96 ft 12 kts 118°
2026-04-21 23:51 28.43741 -81.29909 93 ft 14 kts 156°
2026-04-21 23:51 28.43641 -81.29888 94 ft 15 kts 179°
2026-04-21 23:52 28.43554 -81.29859 95 ft 13 kts 114°
2026-04-21 23:52 28.43488 -81.29805 94 ft 13 kts 179°
2026-04-21 23:52 28.43401 -81.29803 94 ft 13 kts 179°
2026-04-21 23:52 28.43304 -81.29803 95 ft 17 kts 180°
2026-04-21 23:53 28.43162 -81.29802 94 ft 24 kts 179°
2026-04-21 23:53 28.42981 -81.29800 94 ft 26 kts 179°
2026-04-21 23:53 28.42803 -81.29799 95 ft 25 kts 179°
2026-04-21 23:53 28.42639 -81.29796 94 ft 23 kts 179°
2026-04-21 23:54 28.42481 -81.29795 94 ft 22 kts 179°
2026-04-21 23:54 28.42334 -81.29793 95 ft 16 kts 180°
2026-04-21 23:54 28.42279 -81.29875 94 ft 15 kts 268°
2026-04-21 23:54 28.42280 -81.29991 93 ft 14 kts 270°
2026-04-21 23:55 28.42277 -81.30110 93 ft 16 kts 266°
2026-04-21 23:55 28.42276 -81.30240 93 ft 17 kts 269°
2026-04-21 23:55 28.42272 -81.30381 93 ft 18 kts 266°
2026-04-21 23:55 28.42262 -81.30538 93 ft 24 kts 265°
2026-04-21 23:56 28.42248 -81.30752 93 ft 30 kts 265°
2026-04-21 23:56 28.42235 -81.30991 93 ft 30 kts 271°
2026-04-21 23:56 28.42264 -81.31216 93 ft 28 kts 277°
2026-04-21 23:56 28.42267 -81.31429 95 ft 26 kts 269°
2026-04-21 23:57 28.42265 -81.31628 97 ft 24 kts 269°
2026-04-21 23:57 28.42232 -81.31780 98 ft 16 kts 192°
2026-04-21 23:57 28.42125 -81.31789 98 ft 15 kts 186°
2026-04-21 23:57 28.42012 -81.31795 98 ft 17 kts 179°
2026-04-21 23:58 28.41874 -81.31794 98 ft 22 kts 180°
2026-04-21 23:58 28.41757 -81.31795 98 ft 4 kts 198°
2026-04-21 23:58 28.41734 -81.31856 97 ft 19 kts 225°
2026-04-21 23:58 28.41601 -81.31879 96 ft 19 kts 181°
2026-04-21 23:59 28.41543 -81.31982 96 ft 18 kts 269°
2026-04-21 23:59 28.41543 -81.32083 96 ft 0 kts 269°
2026-04-22 00:00 28.41542 -81.32115 96 ft 8 kts 269°
2026-04-22 00:01 28.41555 -81.32181 97 ft 10 kts 312°
2026-04-22 00:01 28.41691 -81.32196 96 ft 44 kts
2026-04-22 00:01 28.42252 -81.32202 101 ft 114 kts 359°
2026-04-22 00:01 28.43232 -81.32228 131 ft 163 kts
2026-04-22 00:02 28.44417 -81.32264 669 ft 175 kts
2026-04-22 00:02 28.45605 -81.32318 1568 ft 166 kts
2026-04-22 00:02 28.46774 -81.32323 2287 ft 175 kts
2026-04-22 00:02 28.48105 -81.32308 2601 ft 207 kts
2026-04-22 00:03 28.49648 -81.32294 2889 ft 235 kts
2026-04-22 00:03 28.51309 -81.32303 3671 ft 242 kts
2026-04-22 00:03 28.52978 -81.32496 4633 ft 242 kts 356°
2026-04-22 00:03 28.54659 -81.32780 5519 ft 248 kts 348°
2026-04-22 00:04 28.56251 -81.33500 6550 ft 244 kts 339°
2026-04-22 00:04 28.57774 -81.34300 6881 ft 238 kts 336°
2026-04-22 00:04 28.59093 -81.35527 6977 ft 257 kts 308°
2026-04-22 00:04 28.59741 -81.37498 7210 ft 282 kts 279°
2026-04-22 00:05 28.59802 -81.39772 8010 ft 291 kts 271°
2026-04-22 00:05 28.59747 -81.42073 9048 ft 291 kts 271°
2026-04-22 00:05 28.59696 -81.44395 10063 ft 295 kts 270°
2026-04-22 00:05 28.59658 -81.46784 10675 ft 313 kts 270°
2026-04-22 00:06 28.59371 -81.49350 10861 ft 344 kts 251°
2026-04-22 00:06 28.58165 -81.51762 11090 ft 370 kts 232°
2026-04-22 00:06 28.56475 -81.54053 11616 ft 383 kts 229°
2026-04-22 00:06 28.54702 -81.56329 12452 ft 386 kts 229°
2026-04-22 00:07 28.52903 -81.58621 13229 ft 391 kts 229°
2026-04-22 00:07 28.51090 -81.60950 14045 ft 394 kts 229°
2026-04-22 00:07 28.49279 -81.63300 14814 ft 397 kts 230°
2026-04-22 00:07 28.47464 -81.65676 15573 ft 399 kts 231°
2026-04-22 00:08 28.45648 -81.68062 16451 ft 399 kts 231°
2026-04-22 00:08 28.43832 -81.70452 17264 ft 400 kts 230°
2026-04-22 00:08 28.42004 -81.72860 17933 ft 406 kts 231°
2026-04-22 00:08 28.40147 -81.75306 18587 ft 410 kts 231°
2026-04-22 00:09 28.38276 -81.77769 19188 ft 413 kts 231°
2026-04-22 00:09 28.36393 -81.80246 19790 ft 416 kts 231°
2026-04-22 00:09 28.34496 -81.82739 20411 ft 418 kts 231°
2026-04-22 00:09 28.32590 -81.85240 21022 ft 421 kts 232°
2026-04-22 00:10 28.30684 -81.87771 21614 ft 422 kts 235°
2026-04-22 00:10 28.29232 -81.90638 22159 ft 419 kts 252°
2026-04-22 00:10 28.28481 -81.93821 22780 ft 418 kts 259°
2026-04-22 00:10 28.27881 -81.97048 23350 ft 419 kts 260°
2026-04-22 00:11 28.27300 -82.00298 23860 ft 422 kts 261°
2026-04-22 00:11 28.26914 -82.02460 24137 ft 423 kts 260°
2026-04-22 00:11 28.26311 -82.05784 24538 ft 426 kts 260°
2026-04-22 00:11 28.25700 -82.09082 24930 ft 429 kts 260°
2026-04-22 00:12 28.25086 -82.12349 25324 ft 431 kts 260°
2026-04-22 00:12 28.24452 -82.15683 25717 ft 433 kts 260°
2026-04-22 00:12 28.23812 -82.19028 26116 ft 436 kts 260°
2026-04-22 00:12 28.23165 -82.22393 26504 ft 438 kts 260°
2026-04-22 00:13 28.22514 -82.25775 26870 ft 440 kts 260°
2026-04-22 00:13 28.21858 -82.29180 27220 ft 443 kts 260°
2026-04-22 00:13 28.21199 -82.32597 27560 ft 445 kts 260°
2026-04-22 00:13 28.20536 -82.36032 27909 ft 447 kts 260°
2026-04-22 00:14 28.19869 -82.39478 28341 ft 447 kts 260°
2026-04-22 00:14 28.19204 -82.42910 28831 ft 446 kts 260°
2026-04-22 00:14 28.18539 -82.46337 29351 ft 445 kts 260°
2026-04-22 00:14 28.17875 -82.49756 29903 ft 443 kts 260°
2026-04-22 00:15 28.17213 -82.53157 30457 ft 441 kts 260°
2026-04-22 00:15 28.16554 -82.56543 30938 ft 439 kts 261°
2026-04-22 00:15 28.15895 -82.59922 31446 ft 437 kts 261°
2026-04-22 00:15 28.15241 -82.63271 32004 ft 434 kts 261°
2026-04-22 00:16 28.14588 -82.66613 32235 ft 436 kts 261°
2026-04-22 00:16 28.13273 -82.73329 32232 ft 435 kts 261°
2026-04-22 00:17 28.11968 -82.79976 32246 ft 431 kts 261°
2026-04-22 00:17 28.10665 -82.86597 32247 ft 430 kts 261°
2026-04-22 00:18 28.09380 -82.93217 32250 ft 430 kts 261°
2026-04-22 00:18 28.08141 -82.99838 32247 ft 430 kts 261°
2026-04-22 00:19 28.06898 -83.06464 32239 ft 430 kts 261°
2026-04-22 00:19 28.05656 -83.13039 32223 ft 430 kts 261°
2026-04-22 00:20 28.04399 -83.19662 32233 ft 430 kts 261°
2026-04-22 00:20 28.03138 -83.26285 32220 ft 430 kts 261°
2026-04-22 00:21 28.01875 -83.32903 32230 ft 430 kts 261°
2026-04-22 00:21 28.00609 -83.39522 32234 ft 430 kts 261°
2026-04-22 00:22 27.99655 -83.46182 32240 ft 427 kts 268°
2026-04-22 00:22 27.99318 -83.52888 32228 ft 427 kts 270°
2026-04-22 00:23 27.99027 -83.59598 32228 ft 427 kts 269°
2026-04-22 00:23 27.98678 -83.66304 32232 ft 427 kts 269°
2026-04-22 00:24 27.98292 -83.73009 32231 ft 427 kts 269°
2026-04-22 00:24 27.97892 -83.79720 32231 ft 427 kts 269°
2026-04-22 00:25 27.97489 -83.86424 32232 ft 427 kts 269°
2026-04-22 00:25 27.97084 -83.93130 32229 ft 427 kts 268°
2026-04-22 00:26 27.96676 -83.99830 32229 ft 427 kts 268°
2026-04-22 00:26 27.96265 -84.06526 32234 ft 427 kts 268°
2026-04-22 00:27 27.95851 -84.13216 32233 ft 426 kts 268°
2026-04-22 00:27 27.95434 -84.19906 32233 ft 426 kts 268°
2026-04-22 00:28 27.95014 -84.26595 32230 ft 426 kts 268°
2026-04-22 00:28 27.94591 -84.33276 32222 ft 426 kts 268°
2026-04-22 00:29 27.94165 -84.39943 32230 ft 425 kts 268°
2026-04-22 00:29 27.93737 -84.46604 32234 ft 424 kts 268°
2026-04-22 00:30 27.93307 -84.53255 32234 ft 424 kts 268°
2026-04-22 00:30 27.92873 -84.59902 32238 ft 424 kts 268°
2026-04-22 00:31 27.92436 -84.66546 32236 ft 424 kts 268°
2026-04-22 00:31 27.91996 -84.73184 32233 ft 423 kts 268°
2026-04-22 00:32 27.91554 -84.79815 32232 ft 423 kts 268°
2026-04-22 00:32 27.91109 -84.86440 32233 ft 422 kts 268°
2026-04-22 00:33 27.90661 -84.93057 32238 ft 422 kts 268°
2026-04-22 00:33 27.90211 -84.99671 32236 ft 422 kts 268°
2026-04-22 00:34 27.89757 -85.06279 32227 ft 422 kts 268°
2026-04-22 00:34 27.89304 -85.12836 32234 ft 421 kts 268°
2026-04-22 00:35 27.88846 -85.19434 32234 ft 421 kts 268°
2026-04-22 00:35 27.88622 -85.26020 32223 ft 418 kts 279°
2026-04-22 00:36 27.90226 -85.32290 32239 ft 416 kts 289°
2026-04-22 00:36 27.92182 -85.38492 32229 ft 416 kts 289°
2026-04-22 00:37 27.94093 -85.44621 32231 ft 416 kts 289°
2026-04-22 00:37 27.95983 -85.50810 32233 ft 416 kts 289°
2026-04-22 00:38 27.97856 -85.57006 32232 ft 416 kts 289°
2026-04-22 00:38 27.99723 -85.63206 32246 ft 416 kts 289°
2026-04-22 00:39 28.01590 -85.69416 32247 ft 417 kts 289°
2026-04-22 00:39 28.03455 -85.75632 32238 ft 417 kts 289°
2026-04-22 00:40 28.05318 -85.81851 32237 ft 417 kts 289°
2026-04-22 00:40 28.07179 -85.88074 32240 ft 417 kts 289°
2026-04-22 00:41 28.09038 -85.94302 32239 ft 417 kts 288°
2026-04-22 00:41 28.10893 -86.00529 32240 ft 417 kts 288°
2026-04-22 00:42 28.12745 -86.06756 32239 ft 417 kts 288°
2026-04-22 00:42 28.14595 -86.12988 32242 ft 417 kts 288°
2026-04-22 00:43 28.16441 -86.19221 32236 ft 417 kts 288°
2026-04-22 00:43 28.18283 -86.25450 32242 ft 417 kts 288°
2026-04-22 00:44 28.20121 -86.31677 32239 ft 417 kts 288°
2026-04-22 00:44 28.21944 -86.37866 32238 ft 416 kts 288°
2026-04-22 00:45 28.23775 -86.44092 32243 ft 416 kts 288°
2026-04-22 00:45 28.25604 -86.50324 32242 ft 416 kts 288°
2026-04-22 00:46 28.27428 -86.56553 32243 ft 416 kts 288°
2026-04-22 00:46 28.29251 -86.62788 32243 ft 416 kts 288°
2026-04-22 00:47 28.31072 -86.69025 32241 ft 417 kts 288°
2026-04-22 00:47 28.32897 -86.75271 32241 ft 417 kts 288°
2026-04-22 00:48 28.34727 -86.81515 32247 ft 417 kts 288°
2026-04-22 00:48 28.36555 -86.87764 32241 ft 417 kts 288°
2026-04-22 00:49 28.38380 -86.94017 32243 ft 417 kts 288°
2026-04-22 00:49 28.40200 -87.00269 32245 ft 417 kts 288°
2026-04-22 00:50 28.42018 -87.06525 32247 ft 417 kts 288°
2026-04-22 00:50 28.43833 -87.12783 32245 ft 417 kts 288°
2026-04-22 00:51 28.45644 -87.19039 32243 ft 417 kts 288°
2026-04-22 00:51 28.47450 -87.25293 32243 ft 417 kts 288°
2026-04-22 00:52 28.49259 -87.31565 32242 ft 417 kts 288°
2026-04-22 00:52 28.51062 -87.37833 32242 ft 417 kts 288°
2026-04-22 00:53 28.52850 -87.44056 32247 ft 417 kts 288°
2026-04-22 00:53 28.54648 -87.50329 32247 ft 417 kts 288°
2026-04-22 00:54 28.56444 -87.56605 32246 ft 417 kts 288°
2026-04-22 00:54 28.58238 -87.62886 32245 ft 417 kts 288°
2026-04-22 00:55 28.60028 -87.69169 32246 ft 417 kts 288°
2026-04-22 00:55 28.62707 -87.78592 32246 ft 417 kts 288°
2026-04-22 00:56 28.64489 -87.84876 32244 ft 417 kts 288°
2026-04-22 00:56 28.66268 -87.91162 32251 ft 417 kts 288°
2026-04-22 00:57 28.68044 -87.97450 32240 ft 417 kts 288°
2026-04-22 00:57 28.69815 -88.03729 32239 ft 416 kts 287°
2026-04-22 00:58 28.71294 -88.08986 32242 ft 416 kts 287°
2026-04-22 00:58 28.73054 -88.15259 32243 ft 416 kts 287°
2026-04-22 00:59 28.74807 -88.21531 32239 ft 415 kts 287°
2026-04-22 00:59 28.76558 -88.27806 32239 ft 415 kts 287°
2026-04-22 01:00 28.78294 -88.34037 32247 ft 415 kts 287°
2026-04-22 01:00 28.80039 -88.40311 32248 ft 415 kts 287°
2026-04-22 01:01 28.81780 -88.46587 32245 ft 415 kts 287°
2026-04-22 01:01 28.83519 -88.52867 32241 ft 415 kts 287°
2026-04-22 01:02 28.85256 -88.59153 32243 ft 416 kts 287°
2026-04-22 01:02 28.86994 -88.65450 32240 ft 416 kts 287°
2026-04-22 01:03 28.89443 -88.71423 32247 ft 418 kts 300°
2026-04-22 01:03 28.93060 -88.76653 32245 ft 421 kts 308°
2026-04-22 01:04 28.96910 -88.81690 32250 ft 421 kts 308°
2026-04-22 01:04 29.00757 -88.86744 32227 ft 421 kts 308°
2026-04-22 01:05 29.04579 -88.91809 32249 ft 421 kts 308°
2026-04-22 01:05 29.08389 -88.96882 32246 ft 420 kts 307°
2026-04-22 01:06 29.12191 -89.01952 32241 ft 420 kts 307°
2026-04-22 01:06 29.15991 -89.07027 32249 ft 420 kts 307°
2026-04-22 01:07 29.19787 -89.12103 32247 ft 419 kts 307°
2026-04-22 01:07 29.23578 -89.17178 32248 ft 419 kts 307°
2026-04-22 01:08 29.25472 -89.19715 32112 ft 418 kts 307°
2026-04-22 01:08 29.27383 -89.22279 30971 ft 426 kts 307°
2026-04-22 01:08 29.29320 -89.24879 29814 ft 430 kts 308°
2026-04-22 01:08 29.31264 -89.27491 28602 ft 432 kts 308°
2026-04-22 01:09 29.33219 -89.30116 27517 ft 432 kts 308°
2026-04-22 01:09 29.35162 -89.32725 26618 ft 428 kts 308°
2026-04-22 01:09 29.37054 -89.35267 25810 ft 423 kts 308°
2026-04-22 01:09 29.38981 -89.37858 24989 ft 419 kts 308°
2026-04-22 01:10 29.40865 -89.40394 24187 ft 416 kts 308°
2026-04-22 01:10 29.42734 -89.42913 23292 ft 413 kts 308°
2026-04-22 01:10 29.44583 -89.45406 22435 ft 408 kts 308°
2026-04-22 01:10 29.46411 -89.47872 21625 ft 403 kts 308°
2026-04-22 01:11 29.48208 -89.50296 20743 ft 393 kts 308°
2026-04-22 01:11 29.49961 -89.52664 19598 ft 386 kts 308°
2026-04-22 01:11 29.51686 -89.54995 18469 ft 380 kts 308°
2026-04-22 01:11 29.53362 -89.57262 17250 ft 375 kts 308°
2026-04-22 01:12 29.55036 -89.59528 16089 ft 369 kts 308°
2026-04-22 01:12 29.56708 -89.61791 14970 ft 364 kts 308°
2026-04-22 01:12 29.58310 -89.63961 14143 ft 355 kts 308°
2026-04-22 01:12 29.59865 -89.66065 13694 ft 334 kts 308°
2026-04-22 01:13 29.61322 -89.68037 13428 ft 313 kts 307°
2026-04-22 01:13 29.62689 -89.69888 13042 ft 298 kts 307°
2026-04-22 01:13 29.64000 -89.71669 12647 ft 286 kts 307°
2026-04-22 01:13 29.65276 -89.73403 12028 ft 284 kts 307°
2026-04-22 01:14 29.66571 -89.75169 11134 ft 293 kts 308°
2026-04-22 01:14 29.67895 -89.76973 10411 ft 296 kts 308°
2026-04-22 01:14 29.69226 -89.78785 9709 ft 297 kts 308°
2026-04-22 01:14 29.70553 -89.80592 9036 ft 295 kts 308°
2026-04-22 01:15 29.71876 -89.82393 8401 ft 294 kts 309°
2026-04-22 01:15 29.73188 -89.84179 7806 ft 291 kts 309°
2026-04-22 01:15 29.74502 -89.85969 7130 ft 293 kts 310°
2026-04-22 01:15 29.75804 -89.87744 6669 ft 286 kts 310°
2026-04-22 01:16 29.77070 -89.89470 6267 ft 278 kts 311°
2026-04-22 01:16 29.78296 -89.91142 5904 ft 271 kts 311°
2026-04-22 01:16 29.79505 -89.92792 5579 ft 269 kts 310°
2026-04-22 01:16 29.80713 -89.94440 5237 ft 269 kts 311°
2026-04-22 01:17 29.81916 -89.96082 4877 ft 267 kts 311°
2026-04-22 01:17 29.83111 -89.97713 4538 ft 266 kts 310°
2026-04-22 01:17 29.84302 -89.99340 4206 ft 265 kts 309°
2026-04-22 01:17 29.85665 -90.00732 3906 ft 261 kts 333°
2026-04-22 01:18 29.87313 -90.01520 3750 ft 253 kts 340°
2026-04-22 01:18 29.88939 -90.02242 3535 ft 248 kts 339°
2026-04-22 01:18 29.90525 -90.02960 3362 ft 242 kts 339°
2026-04-22 01:18 29.92070 -90.03668 3179 ft 236 kts 339°
2026-04-22 01:19 29.93538 -90.04441 3033 ft 229 kts 323°
2026-04-22 01:19 29.94358 -90.05881 3041 ft 207 kts 282°
2026-04-22 01:19 29.94693 -90.07430 3007 ft 199 kts 282°
2026-04-22 01:19 29.95058 -90.09036 2548 ft 208 kts 283°
2026-04-22 01:20 29.95432 -90.10614 2392 ft 200 kts 283°
2026-04-22 01:20 29.95800 -90.12145 2263 ft 200 kts 283°
2026-04-22 01:20 29.96169 -90.13668 2201 ft 199 kts 283°
2026-04-22 01:20 29.96548 -90.15210 2135 ft 197 kts 283°
2026-04-22 01:21 29.96905 -90.16691 1973 ft 188 kts 283°
2026-04-22 01:21 29.97241 -90.18092 1808 ft 174 kts 282°
2026-04-22 01:21 29.97556 -90.19410 1613 ft 172 kts 282°
2026-04-22 01:21 29.97875 -90.20721 1271 ft 168 kts 282°
2026-04-22 01:22 29.98173 -90.22013 889 ft 164 kts 277°
2026-04-22 01:22 29.98175 -90.23284 636 ft 152 kts 258°
2026-04-22 01:22 29.98044 -90.24499 650 ft 157 kts 262°
2026-04-22 01:22 29.98044 -90.25762 723 ft 158 kts 270°
2026-04-22 01:23 29.98087 -90.27030 808 ft 159 kts 271°
2026-04-22 01:23 29.98150 -90.28322 840 ft 162 kts 272°
2026-04-22 01:23 29.98268 -90.29590 863 ft 157 kts 275°
2026-04-22 01:23 29.98502 -90.30788 857 ft 144 kts 301°
2026-04-22 01:24 29.99353 -90.31370 797 ft 149 kts
2026-04-22 01:24 30.00138 -90.30844 552 ft 129 kts 69°
2026-04-22 01:24 30.00083 -90.29900 316 ft 116 kts 111°
2026-04-22 01:24 29.99864 -90.29021 215 ft 114 kts 107°
2026-04-22 01:25 29.99649 -90.28125 48 ft 117 kts 105°
2026-04-22 01:25 29.99449 -90.27279 4 ft 97 kts 105°
2026-04-22 01:25 29.99301 -90.26665 10 ft 62 kts 107°
2026-04-22 01:25 29.99202 -90.26275 5 ft 46 kts 105°
2026-04-22 01:26 29.99124 -90.25939 8 ft 40 kts 105°
2026-04-22 01:26 29.99075 -90.25697 6 ft 21 kts 77°
2026-04-22 01:26 29.99174 -90.25626 4 ft 14 kts 14°
2026-04-22 01:26 29.99212 -90.25652 3 ft 7 kts 275°
2026-04-22 01:27 29.99218 -90.25734 3 ft 13 kts 281°
2026-04-22 01:27 29.99247 -90.25831 4 ft 8 kts 315°
2026-04-22 01:27 29.99287 -90.25859 3 ft 7 kts 338°
2026-04-22 01:27 29.99351 -90.25850 3 ft 12 kts 14°
2026-04-22 01:28 29.99377 -90.25837 3 ft 5 kts 50°
2026-04-22 01:28 29.99375 -90.25762 7 ft 0 kts 101°